Location: Caltech
(34.1382°N, 118.1253°W)
Time: 16:45:57
(UTC-08:00)

Iridium 21 - Visible Passes

Search period start: 30 January 2015 00:00
Search period end: 09 February 2015 00:00
Orbit: 776 x 779 km, 86.4° (Epoch: 29 January)

Date Brightness Start Highest point End Pass type
(mag) Time Alt. Az. Time Alt. Az. Time Alt. Az.
30 Jan 7.4 05:46:10 10° SSE 05:50:44 33° E 05:55:25 10° NNE visible
30 Jan 5.5 17:59:53 10° N 18:05:07 81° E 18:10:20 10° S visible
31 Jan 8.4 05:14:11 10° ESE 05:17:24 17° E 05:20:51 10° NE visible
31 Jan 8.3 19:08:24 10° NW 19:11:58 18° W 19:15:18 10° WSW visible
01 Feb 5.5 06:19:02 10° S 06:24:14 84° W 06:29:29 10° N visible
01 Feb 7.3 18:33:54 10° NNW 18:38:37 34° W 18:43:15 10° SSW visible
02 Feb 6.6 05:45:47 10° SSE 05:50:46 50° E 05:55:49 10° NNE visible
02 Feb 6.0 18:00:01 10° N 18:05:12 68° W 18:10:21 10° S visible
03 Feb 7.8 05:13:13 10° SE 05:17:23 26° E 05:21:41 10° NNE visible
03 Feb 8.7 19:09:54 10° WNW 19:11:56 12° W 19:13:36 10° W visible
04 Feb 8.6 04:41:50 10° ESE 04:44:04 13° E 04:46:36 10° NE visible
04 Feb 5.6 06:19:16 10° SSW 06:24:21 56° W 06:29:29 10° N visible
04 Feb 8.0 18:34:29 10° NNW 18:38:37 23° W 18:42:36 10° SW visible
05 Feb 5.8 05:45:39 10° S 05:50:50 75° E 05:56:03 10° N visible
05 Feb 6.8 18:00:17 10° NNW 18:05:14 45° W 18:10:09 10° SSW visible
06 Feb 7.0 05:12:38 10° SSE 05:17:24 38° E 05:22:13 10° NNE visible
07 Feb 8.1 04:40:26 10° SE 04:44:02 20° E 04:47:50 10° NE visible
07 Feb 8.5 18:35:26 10° NW 18:38:36 16° W 18:41:30 10° WSW visible
08 Feb 5.5 05:45:43 10° S 05:50:55 73° W 05:56:08 10° N visible
08 Feb 7.7 18:00:43 10° NNW 18:05:15 30° W 18:09:42 10° SW visible
